Time,TemperatureF,DewpointF,PressureIn,WindDirection,WindDirectionDegrees,WindSpeedMPH,WindSpeedGustMPH,Humidity,HourlyPrecipIn,Conditions,Clouds,dailyrainin,SoftwareType,DateUTC
2013-03-30 00:03:00,63.1,32.0,29.09,NNE,18,3.5,3.5,31,0.00,SCT,SCT,0.00,WeatherDisplay:10.37,2013-03-30 07:03:00,
2013-03-30 00:08:00,63.0,31.8,29.06,NNE,31,4.0,4.0,31,0.00,SCT,SCT,0.00,WeatherDisplay:10.37,2013-03-30 07:08:00,
2013-03-30 00:13:00,62.4,31.4,29.06,North,10,3.6,3.6,31,0.00,SCT,SCT,0.00,WeatherDisplay:10.37,2013-03-30 07:13:00,
2013-03-30 00:18:00,62.4,31.4,29.06,North,0,4.9,4.9,31,0.00,SCT,SCT,0.00,WeatherDisplay:10.37,2013-03-30 07:18:00,
2013-03-30 00:23:00,62.6,31.5,29.09,NNE,15,4.0,4.0,31,0.00,SCT,SCT,0.00,WeatherDisplay:10.37,2013-03-30 07:23:00,
2013-03-30 00:28:00,63.0,31.8,29.09,NNE,23,5.8,5.8,31,0.00,SCT,SCT,0.00,WeatherDisplay:10.37,2013-03-30 07:28:00,
2013-03-30 00:33:00,63.0,31.8,29.09,North,8,5.4,5.4,31,0.00,SCT,SCT,0.00,WeatherDisplay:10.37,2013-03-30 07:33:00,
2013-03-30 00:38:00,63.0,31.8,29.06,NNE,18,5.8,5.8,31,0.00,SCT,SCT,0.00,WeatherDisplay:10.37,2013-03-30 07:38:00,
2013-03-30 00:43:00,63.0,31.8,29.06,NNE,16,5.8,5.8,31,0.00,SCT,SCT,0.00,WeatherDisplay:10.37,2013-03-30 07:43:00,
2013-03-30 00:48:00,63.0,31.8,29.06,NE,44,4.6,4.6,31,0.00,SCT,SCT,0.00,WeatherDisplay:10.37,2013-03-30 07:48:00,
2013-03-30 00:53:00,62.6,31.5,29.06,NNE,20,3.6,3.6,31,0.00,SCT,SCT,0.00,WeatherDisplay:10.37,2013-03-30 07:53:00,
2013-03-30 00:58:00,62.4,31.4,29.06,NNE,21,5.8,5.8,31,0.00,SCT,SCT,0.00,WeatherDisplay:10.37,2013-03-30 07:58:00,
2013-03-30 01:03:00,62.4,31.4,29.06,NE,37,5.8,5.8,31,0.00,SCT,SCT,0.00,WeatherDisplay:10.37,2013-03-30 08:03:00,
2013-03-30 01:08:00,62.6,31.5,29.06,North,8,4.9,4.9,31,0.00,SCT,SCT,0.00,WeatherDisplay:10.37,2013-03-30 08:08:00,
2013-03-30 01:13:00,62.8,31.7,29.06,NE,48,3.6,3.6,31,0.00,SCT,SCT,0.00,WeatherDisplay:10.37,2013-03-30 08:13:00,
2013-03-30 01:18:00,62.8,31.7,29.06,NNW,332,3.5,3.5,31,0.00,SCT,SCT,0.00,WeatherDisplay:10.37,2013-03-30 08:18:00,
2013-03-30 01:23:00,63.0,31.8,29.06,NNE,32,3.5,3.5,31,0.00,SCT,SCT,0.00,WeatherDisplay:10.37,2013-03-30 08:23:00,
2013-03-30 01:28:00,63.1,32.0,29.06,NE,52,3.5,3.5,31,0.00,SCT,SCT,0.00,WeatherDisplay:10.37,2013-03-30 08:28:00,
2013-03-30 01:33:00,63.1,32.0,29.06,North,1,2.7,2.7,31,0.00,SCT,SCT,0.00,WeatherDisplay:10.37,2013-03-30 08:33:00,
2013-03-30 01:38:00,63.3,32.1,29.06,North,7,3.6,3.6,31,0.00,SCT,SCT,0.00,WeatherDisplay:10.37,2013-03-30 08:38:00,
2013-03-30 01:43:00,63.1,32.0,29.06,North,350,4.0,4.0,31,0.00,SCT,SCT,0.00,WeatherDisplay:10.37,2013-03-30 08:43:00,
2013-03-30 01:48:00,63.1,32.0,29.06,North,8,4.0,4.0,31,0.00,SCT,SCT,0.00,WeatherDisplay:10.37,2013-03-30 08:48:00,
2013-03-30 01:53:00,63.0,31.8,29.06,North,7,3.6,3.6,31,0.00,SCT,SCT,0.00,WeatherDisplay:10.37,2013-03-30 08:53:00,
2013-03-30 01:58:00,62.8,31.7,29.06,NNE,29,2.3,0.0,31,0.00,SCT,SCT,0.00,WeatherDisplay:10.37,2013-03-30 08:58:00,
2013-03-30 02:03:00,62.6,31.5,29.06,NE,53,2.7,0.0,31,0.00,SKC,SKC,0.00,WeatherDisplay:10.37,2013-03-30 09:03:00,
2013-03-30 02:08:00,62.6,31.5,29.06,ENE,63,3.5,3.5,31,0.00,SKC,SKC,0.00,WeatherDisplay:10.37,2013-03-30 09:08:00,
2013-03-30 02:13:00,62.4,31.4,29.06,NNE,29,3.6,3.6,31,0.00,SKC,SKC,0.00,WeatherDisplay:10.37,2013-03-30 09:13:00,
2013-03-30 02:18:00,62.4,31.4,29.06,North,6,3.5,3.5,31,0.00,SKC,SKC,0.00,WeatherDisplay:10.37,2013-03-30 09:18:00,
2013-03-30 02:23:00,62.2,31.2,29.06,North,357,0.0,0.0,31,0.00,SKC,SKC,0.00,WeatherDisplay:10.37,2013-03-30 09:23:00,
2013-03-30 02:28:00,62.1,31.0,29.06,NNE,30,0.0,0.0,31,0.00,SKC,SKC,0.00,WeatherDisplay:10.37,2013-03-30 09:28:00,
2013-03-30 02:34:00,61.2,30.3,29.06,NE,43,0.0,0.0,31,0.00,SKC,SKC,0.00,WeatherDisplay:10.37,2013-03-30 09:34:00,
2013-03-30 02:39:00,60.6,30.6,29.06,NE,43,0.0,0.0,32,0.00,SKC,SKC,0.00,WeatherDisplay:10.37,2013-03-30 09:39:00,
2013-03-30 02:40:00,60.6,30.6,29.06,NE,44,0.0,0.0,32,0.00,SKC,SKC,0.00,WeatherDisplay:10.37,2013-03-30 09:40:00,
2013-03-30 02:45:00,60.4,30.4,29.06,NNE,28,0.0,0.0,32,0.00,SKC,SKC,0.00,WeatherDisplay:10.37,2013-03-30 09:45:00,
2013-03-30 02:50:00,60.4,30.4,29.06,NNE,14,2.0,3.0,32,0.00,SKC,SKC,0.00,WeatherDisplay:10.37,2013-03-30 09:50:00,
2013-03-30 02:55:00,60.3,31.8,29.06,NNE,12,2.0,4.0,34,0.00,SKC,SKC,0.00,WeatherDisplay:10.37,2013-03-30 09:55:00,
2013-03-30 03:00:00,60.1,31.6,29.06,NNE,18,3.0,6.0,34,0.00,SKC,SKC,0.00,WeatherDisplay:10.37,2013-03-30 10:00:00,
2013-03-30 03:05:00,60.1,31.6,29.06,NNE,22,3.0,4.0,34,0.00,SKC,SKC,0.00,WeatherDisplay:10.37,2013-03-30 10:05:00,
2013-03-30 03:10:00,60.1,31.6,29.06,NNE,23,3.0,4.0,34,0.00,SKC,SKC,0.00,WeatherDisplay:10.37,2013-03-30 10:10:00,
2013-03-30 03:15:00,60.0,31.5,29.06,NNE,24,3.0,5.0,34,0.00,SKC,SKC,0.00,WeatherDisplay:10.37,2013-03-30 10:15:00,
2013-03-30 03:20:00,59.9,31.4,29.06,NNE,22,5.0,6.0,34,0.00,SKC,SKC,0.00,WeatherDisplay:10.37,2013-03-30 10:20:00,
2013-03-30 03:25:00,59.9,31.4,29.06,NNE,22,5.0,6.0,34,0.00,SKC,SKC,0.00,WeatherDisplay:10.37,2013-03-30 10:25:00,
2013-03-30 03:30:00,59.9,31.4,29.06,NNE,21,3.0,6.0,34,0.00,SKC,SKC,0.00,WeatherDisplay:10.37,2013-03-30 10:30:00,
2013-03-30 03:35:00,60.0,31.5,29.06,NNE,21,5.0,6.0,34,0.00,SKC,SKC,0.00,WeatherDisplay:10.37,2013-03-30 10:35:00,
2013-03-30 03:40:00,59.7,31.3,29.06,NNE,22,5.0,6.0,34,0.00,SKC,SKC,0.00,WeatherDisplay:10.37,2013-03-30 10:40:00,
2013-03-30 03:46:00,59.5,31.1,29.06,NNE,12,3.6,3.6,34,0.00,SKC,SKC,0.00,WeatherDisplay:10.37,2013-03-30 10:46:00,
2013-03-30 03:52:00,59.4,31.0,29.06,North,6,3.5,3.5,34,0.00,SKC,SKC,0.00,WeatherDisplay:10.37,2013-03-30 10:52:00,
2013-03-30 03:57:00,59.7,31.3,29.06,North,5,0.0,0.0,34,0.00,SKC,SKC,0.00,WeatherDisplay:10.37,2013-03-30 10:57:00,
2013-03-30 04:02:00,60.1,31.6,29.06,North,6,0.0,0.0,34,0.00,SKC,SKC,0.00,WeatherDisplay:10.37,2013-03-30 11:02:00,
2013-03-30 04:07:00,60.1,31.6,29.06,WSW,245,0.0,0.0,34,0.00,SKC,SKC,0.00,WeatherDisplay:10.37,2013-03-30 11:07:00,
2013-03-30 04:12:00,59.9,31.4,29.06,West,262,0.0,0.0,34,0.00,SKC,SKC,0.00,WeatherDisplay:10.37,2013-03-30 11:12:00,
2013-03-30 04:17:00,59.7,31.3,29.06,WSW,248,2.7,0.0,34,0.00,SKC,SKC,0.00,WeatherDisplay:10.37,2013-03-30 11:17:00,
2013-03-30 04:22:00,59.5,31.1,29.06,WNW,297,0.0,0.0,34,0.00,SKC,SKC,0.00,WeatherDisplay:10.37,2013-03-30 11:22:00,
2013-03-30 04:27:00,59.2,30.8,29.06,North,353,0.0,0.0,34,0.00,SKC,SKC,0.00,WeatherDisplay:10.37,2013-03-30 11:27:00,
2013-03-30 04:32:00,58.8,30.5,29.06,North,350,0.0,0.0,34,0.00,SKC,SKC,0.00,WeatherDisplay:10.37,2013-03-30 11:32:00,
2013-03-30 04:37:00,58.5,30.2,29.03,NNE,23,5.8,5.8,34,0.00,SKC,SKC,0.00,WeatherDisplay:10.37,2013-03-30 11:37:00,
2013-03-30 04:42:00,58.5,30.2,29.03,NNE,23,4.0,4.0,34,0.00,SKC,SKC,0.00,WeatherDisplay:10.37,2013-03-30 11:42:00,
2013-03-30 04:47:00,58.3,30.0,29.03,North,10,0.0,0.0,34,0.00,SKC,SKC,0.00,WeatherDisplay:10.37,2013-03-30 11:47:00,
2013-03-30 04:52:00,58.3,30.0,29.03,North,10,0.0,0.0,34,0.00,SKC,SKC,0.00,WeatherDisplay:10.37,2013-03-30 11:52:00,
2013-03-30 04:58:00,58.3,30.0,29.03,North,10,0.0,0.0,34,0.00,SKC,SKC,0.00,WeatherDisplay:10.37,2013-03-30 11:58:00,
2013-03-30 05:03:00,58.3,30.0,29.03,North,10,0.0,0.0,34,0.00,SCT,SCT,0.00,WeatherDisplay:10.37,2013-03-30 12:03:00,
2013-03-30 05:08:00,58.3,30.0,29.06,North,10,0.0,0.0,34,0.00,SCT,SCT,0.00,WeatherDisplay:10.37,2013-03-30 12:08:00,
2013-03-30 05:13:00,58.3,30.0,29.06,North,10,0.0,0.0,34,0.00,SCT,SCT,0.00,WeatherDisplay:10.37,2013-03-30 12:13:00,
2013-03-30 05:18:00,58.1,29.8,29.06,North,10,0.0,0.0,34,0.00,SCT,SCT,0.00,WeatherDisplay:10.37,2013-03-30 12:18:00,
2013-03-30 05:23:00,57.9,29.7,29.06,North,10,0.0,0.0,34,0.00,SCT,SCT,0.00,WeatherDisplay:10.37,2013-03-30 12:23:00,
2013-03-30 05:28:00,57.6,29.4,29.06,North,10,0.0,0.0,34,0.00,SCT,SCT,0.00,WeatherDisplay:10.37,2013-03-30 12:28:00,
2013-03-30 05:34:00,57.2,29.1,29.06,North,10,0.0,0.0,34,0.00,SCT,SCT,0.00,WeatherDisplay:10.37,2013-03-30 12:34:00,
2013-03-30 05:40:00,56.7,29.3,29.06,North,10,0.0,0.0,35,0.00,SCT,SCT,0.00,WeatherDisplay:10.37,2013-03-30 12:40:00,
2013-03-30 05:45:00,56.7,29.3,29.06,North,10,0.0,0.0,35,0.00,SCT,SCT,0.00,WeatherDisplay:10.37,2013-03-30 12:45:00,
2013-03-30 05:50:00,56.7,29.3,29.06,North,10,0.0,0.0,35,0.00,SCT,SCT,0.00,WeatherDisplay:10.37,2013-03-30 12:50:00,
2013-03-30 05:55:00,56.5,29.1,29.03,North,10,0.0,0.0,35,0.00,SCT,SCT,0.00,WeatherDisplay:10.37,2013-03-30 12:55:00,
2013-03-30 06:00:00,56.5,29.1,29.03,North,10,0.0,0.0,35,0.00,SCT,SCT,0.00,WeatherDisplay:10.37,2013-03-30 13:00:00,
2013-03-30 06:05:00,56.5,29.1,29.03,North,10,0.0,0.0,35,0.00,SCT,SCT,0.00,WeatherDisplay:10.37,2013-03-30 13:05:00,
2013-03-30 06:10:00,56.5,29.1,29.06,North,10,0.0,0.0,35,0.00,SCT,SCT,0.00,WeatherDisplay:10.37,2013-03-30 13:10:00,
2013-03-30 06:15:00,56.5,29.1,29.06,North,10,0.0,0.0,35,0.00,SCT,SCT,0.00,WeatherDisplay:10.37,2013-03-30 13:15:00,
2013-03-30 06:20:00,56.5,29.1,29.06,North,10,0.0,0.0,35,0.00,SCT,SCT,0.00,WeatherDisplay:10.37,2013-03-30 13:20:00,
2013-03-30 06:25:00,56.7,29.3,29.06,WSW,252,3.6,0.0,35,0.00,SCT,SCT,0.00,WeatherDisplay:10.37,2013-03-30 13:25:00,
2013-03-30 06:30:00,56.8,29.4,29.06,WSW,243,3.6,3.6,35,0.00,SCT,SCT,0.00,WeatherDisplay:10.37,2013-03-30 13:30:00,
2013-03-30 06:35:00,57.2,29.1,29.06,WSW,244,0.0,0.0,34,0.00,SCT,SCT,0.00,WeatherDisplay:10.37,2013-03-30 13:35:00,
2013-03-30 06:40:00,57.0,29.6,29.06,WSW,243,0.0,0.0,35,0.00,SCT,SCT,0.00,WeatherDisplay:10.37,2013-03-30 13:40:00,
2013-03-30 06:45:00,56.8,29.4,29.06,WSW,243,0.0,0.0,35,0.00,SCT,SCT,0.00,WeatherDisplay:10.37,2013-03-30 13:45:00,
2013-03-30 06:50:00,56.8,29.4,29.06,WSW,243,0.0,0.0,35,0.00,SCT,SCT,0.00,WeatherDisplay:10.37,2013-03-30 13:50:00,
2013-03-30 06:55:00,56.7,29.3,29.06,North,2,0.0,0.0,35,0.00,SCT,SCT,0.00,WeatherDisplay:10.37,2013-03-30 13:55:00,
2013-03-30 07:00:00,56.8,29.4,29.06,NNE,25,3.6,0.0,35,0.00,SCT,SCT,0.00,WeatherDisplay:10.37,2013-03-30 14:00:00,
2013-03-30 07:05:00,56.8,29.4,29.06,NNE,26,0.0,0.0,35,0.00,SCT,SCT,0.00,WeatherDisplay:10.37,2013-03-30 14:05:00,
2013-03-30 07:10:00,56.8,29.4,29.06,NNE,24,0.0,0.0,35,0.00,SCT,SCT,0.00,WeatherDisplay:10.37,2013-03-30 14:10:00,
2013-03-30 07:15:00,57.0,30.3,29.06,NNE,18,0.0,3.0,36,0.00,SCT,SCT,0.00,WeatherDisplay:10.37,2013-03-30 14:15:00,
2013-03-30 07:20:00,57.2,30.5,29.06,NNE,16,3.0,4.0,36,0.00,SCT,SCT,0.00,WeatherDisplay:10.37,2013-03-30 14:20:00,
2013-03-30 07:25:00,57.4,31.3,29.06,NNE,18,1.0,3.0,37,0.00,SCT,SCT,0.00,WeatherDisplay:10.37,2013-03-30 14:25:00,
2013-03-30 07:30:00,57.6,29.4,29.06,NNE,17,0.0,0.0,34,0.00,SCT,SCT,0.00,WeatherDisplay:10.37,2013-03-30 14:30:00,
2013-03-30 07:35:00,57.9,29.7,29.06,NNE,18,1.0,3.0,34,0.00,SCT,SCT,0.00,WeatherDisplay:10.37,2013-03-30 14:35:00,
2013-03-30 07:40:00,57.9,30.4,29.06,NNE,19,0.0,2.0,35,0.00,SCT,SCT,0.00,WeatherDisplay:10.37,2013-03-30 14:40:00,
2013-03-30 07:45:00,58.1,31.9,29.06,NNE,15,0.0,2.0,37,0.00,SCT,SCT,0.00,WeatherDisplay:10.37,2013-03-30 14:45:00,
2013-03-30 07:50:00,58.1,31.9,29.06,NNE,12,0.0,0.0,37,0.00,SCT,SCT,0.00,WeatherDisplay:10.37,2013-03-30 14:50:00,
2013-03-30 07:56:00,58.3,32.1,29.06,NNE,13,3.6,3.6,37,0.00,SCT,SCT,0.00,WeatherDisplay:10.37,2013-03-30 14:56:00,
2013-03-30 08:02:00,58.6,32.4,29.06,North,11,2.7,0.0,37,0.00,BKN,BKN,0.00,WeatherDisplay:10.37,2013-03-30 15:02:00,
2013-03-30 08:07:00,58.8,32.6,29.06,NNE,15,0.0,0.0,37,0.00,BKN,BKN,0.00,WeatherDisplay:10.37,2013-03-30 15:07:00,
2013-03-30 08:12:00,59.2,32.9,29.06,NNE,15,3.5,3.5,37,0.00,BKN,BKN,0.00,WeatherDisplay:10.37,2013-03-30 15:12:00,
2013-03-30 08:18:00,59.9,33.5,29.06,NE,42,4.9,4.9,37,0.00,BKN,BKN,0.00,WeatherDisplay:10.37,2013-03-30 15:18:00,
2013-03-30 08:23:00,60.6,34.2,29.06,NNE,17,4.0,4.0,37,0.00,BKN,BKN,0.00,WeatherDisplay:10.37,2013-03-30 15:23:00,
2013-03-30 08:28:00,61.3,34.1,29.06,NE,45,3.5,0.0,36,0.00,BKN,BKN,0.00,WeatherDisplay:10.37,2013-03-30 15:28:00,
2013-03-30 08:33:00,61.9,33.2,29.06,NNE,14,2.7,0.0,34,0.00,BKN,BKN,0.00,WeatherDisplay:10.37,2013-03-30 15:33:00,
2013-03-30 08:38:00,62.4,33.7,29.06,NNE,14,0.0,0.0,34,0.00,BKN,BKN,0.00,WeatherDisplay:10.37,2013-03-30 15:38:00,
2013-03-30 08:43:00,62.8,33.2,29.06,NNE,13,3.5,0.0,33,0.00,BKN,BKN,0.00,WeatherDisplay:10.37,2013-03-30 15:43:00,
2013-03-30 08:48:00,63.1,33.5,29.06,NNE,13,2.3,0.0,33,0.00,BKN,BKN,0.00,WeatherDisplay:10.37,2013-03-30 15:48:00,
2013-03-30 08:53:00,63.7,34.0,29.06,NNE,14,0.0,0.0,33,0.00,BKN,BKN,0.00,WeatherDisplay:10.37,2013-03-30 15:53:00,
2013-03-30 08:58:00,64.2,34.5,29.06,NNE,13,0.0,0.0,33,0.00,BKN,BKN,0.00,WeatherDisplay:10.37,2013-03-30 15:58:00,
2013-03-30 09:03:00,64.8,35.0,29.06,NNE,13,0.0,0.0,33,0.00,BKN,BKN,0.00,WeatherDisplay:10.37,2013-03-30 16:03:00,
2013-03-30 09:08:00,65.7,35.8,29.06,NNE,14,0.0,0.0,33,0.00,BKN,BKN,0.00,WeatherDisplay:10.37,2013-03-30 16:08:00,
2013-03-30 09:13:00,66.2,35.4,29.06,NNE,13,0.0,0.0,32,0.00,BKN,BKN,0.00,WeatherDisplay:10.37,2013-03-30 16:13:00,
2013-03-30 09:18:00,66.9,36.1,29.06,NNE,14,0.0,0.0,32,0.00,BKN,BKN,0.00,WeatherDisplay:10.37,2013-03-30 16:18:00,
2013-03-30 09:23:00,67.5,34.9,29.06,SSW,205,2.3,0.0,30,0.00,BKN,BKN,0.00,WeatherDisplay:10.37,2013-03-30 16:23:00,
2013-03-30 09:28:00,67.8,35.2,29.06,SSW,212,3.6,3.6,30,0.00,BKN,BKN,0.00,WeatherDisplay:10.37,2013-03-30 16:28:00,
2013-03-30 09:33:00,67.5,36.6,29.06,SSW,207,8.3,8.3,32,0.00,BKN,BKN,0.00,WeatherDisplay:10.37,2013-03-30 16:33:00,
2013-03-30 09:38:00,66.7,35.9,29.06,WSW,237,5.8,5.8,32,0.00,BKN,BKN,0.00,WeatherDisplay:10.37,2013-03-30 16:38:00,
2013-03-30 09:43:00,66.6,35.8,29.06,SSW,212,3.6,3.6,32,0.00,BKN,BKN,0.00,WeatherDisplay:10.37,2013-03-30 16:43:00,
2013-03-30 09:48:00,66.4,37.9,29.06,SSW,197,4.0,4.0,35,0.00,BKN,BKN,0.00,WeatherDisplay:10.37,2013-03-30 16:48:00,
2013-03-30 09:53:00,66.4,37.9,29.09,SW,229,3.6,3.6,35,0.00,BKN,BKN,0.00,WeatherDisplay:10.37,2013-03-30 16:53:00,
2013-03-30 09:58:00,66.4,35.6,29.09,SW,233,4.6,4.6,32,0.00,BKN,BKN,0.00,WeatherDisplay:10.37,2013-03-30 16:58:00,
2013-03-30 10:03:00,65.7,35.8,29.09,SW,234,6.3,6.3,33,0.00,BKN,BKN,0.00,WeatherDisplay:10.37,2013-03-30 17:03:00,
2013-03-30 10:08:00,65.1,35.3,29.09,SSW,206,5.8,5.8,33,0.00,BKN,BKN,0.00,WeatherDisplay:10.37,2013-03-30 17:08:00,
2013-03-30 10:13:00,64.8,36.5,29.09,South,190,5.8,5.8,35,0.00,BKN,BKN,0.00,WeatherDisplay:10.37,2013-03-30 17:13:00,
2013-03-30 10:19:00,65.3,36.9,29.09,SSW,208,4.0,4.0,35,0.00,BKN,BKN,0.00,WeatherDisplay:10.37,2013-03-30 17:19:00,
2013-03-30 10:24:00,66.0,37.6,29.09,South,173,5.8,5.8,35,0.00,BKN,BKN,0.00,WeatherDisplay:10.37,2013-03-30 17:24:00,
2013-03-30 10:29:00,66.6,35.8,29.09,SSW,193,5.8,5.8,32,0.00,BKN,BKN,0.00,WeatherDisplay:10.37,2013-03-30 17:29:00,
2013-03-30 10:35:00,66.9,36.1,29.09,South,170,5.8,5.8,32,0.00,BKN,BKN,0.00,WeatherDisplay:10.37,2013-03-30 17:35:00,
2013-03-30 10:40:00,67.3,36.4,29.09,SSW,205,4.0,4.0,32,0.00,BKN,BKN,0.00,WeatherDisplay:10.37,2013-03-30 17:40:00,
2013-03-30 10:45:00,67.5,36.6,29.09,SSE,162,8.1,8.1,32,0.00,BKN,BKN,0.00,WeatherDisplay:10.37,2013-03-30 17:45:00,
2013-03-30 10:50:00,67.6,36.7,29.09,SSW,197,8.1,8.1,32,0.00,BKN,BKN,0.00,WeatherDisplay:10.37,2013-03-30 17:50:00,
2013-03-30 10:55:00,67.8,36.9,29.09,SSW,194,3.6,3.6,32,0.00,BKN,BKN,0.00,WeatherDisplay:10.37,2013-03-30 17:55:00,
2013-03-30 11:00:00,67.3,36.4,29.09,South,183,5.8,5.8,32,0.00,BKN,BKN,0.00,WeatherDisplay:10.37,2013-03-30 18:00:00,
2013-03-30 11:05:00,67.8,36.9,29.09,SSE,167,5.8,5.8,32,0.00,BKN,BKN,0.00,WeatherDisplay:10.37,2013-03-30 18:05:00,
2013-03-30 11:10:00,68.2,37.2,29.09,SSE,166,5.4,5.4,32,0.00,BKN,BKN,0.00,WeatherDisplay:10.37,2013-03-30 18:10:00,
2013-03-30 11:15:00,68.0,37.0,29.09,SSW,197,8.1,8.1,32,0.00,BKN,BKN,0.00,WeatherDisplay:10.37,2013-03-30 18:15:00,
2013-03-30 11:20:00,67.8,36.9,29.09,South,189,8.0,8.0,32,0.00,BKN,BKN,0.00,WeatherDisplay:10.37,2013-03-30 18:20:00,
2013-03-30 11:25:00,67.5,36.6,29.09,South,181,9.2,9.2,32,0.00,BKN,BKN,0.00,WeatherDisplay:10.37,2013-03-30 18:25:00,
2013-03-30 11:30:00,67.8,36.9,29.09,South,188,6.3,6.3,32,0.00,BKN,BKN,0.00,WeatherDisplay:10.37,2013-03-30 18:30:00,
2013-03-30 11:35:00,68.7,37.7,29.09,South,180,6.3,8.3,32,0.00,BKN,BKN,0.00,WeatherDisplay:10.37,2013-03-30 18:35:00,
2013-03-30 11:40:00,68.5,37.5,29.09,SSW,206,5.8,6.3,32,0.00,BKN,BKN,0.00,WeatherDisplay:10.37,2013-03-30 18:40:00,
2013-03-30 11:45:00,68.2,37.2,29.09,SSW,196,10.1,10.1,32,0.00,BKN,BKN,0.00,WeatherDisplay:10.37,2013-03-30 18:45:00,
2013-03-30 11:50:00,68.4,37.3,29.09,SSW,194,6.3,6.3,32,0.00,BKN,BKN,0.00,WeatherDisplay:10.37,2013-03-30 18:50:00,
2013-03-30 11:55:00,68.0,37.0,29.09,South,172,8.7,8.7,32,0.00,BKN,BKN,0.00,WeatherDisplay:10.37,2013-03-30 18:55:00,
2013-03-30 12:00:00,68.5,37.5,29.09,SE,136,8.7,8.7,32,0.00,BKN,BKN,0.00,WeatherDisplay:10.37,2013-03-30 19:00:00,
2013-03-30 12:05:00,68.5,37.5,29.09,South,171,9.2,9.2,32,0.00,BKN,BKN,0.00,WeatherDisplay:10.37,2013-03-30 19:05:00,
2013-03-30 12:10:00,68.9,37.8,29.09,South,181,6.3,6.3,32,0.00,BKN,BKN,0.00,WeatherDisplay:10.37,2013-03-30 19:10:00,
2013-03-30 12:15:00,68.9,37.8,29.09,South,185,4.9,4.9,32,0.00,BKN,BKN,0.00,WeatherDisplay:10.37,2013-03-30 19:15:00,
2013-03-30 12:20:00,69.3,38.1,29.09,South,191,8.1,8.1,32,0.00,BKN,BKN,0.00,WeatherDisplay:10.37,2013-03-30 19:20:00,
2013-03-30 12:25:00,69.6,38.4,29.09,South,172,5.8,5.8,32,0.00,BKN,BKN,0.00,WeatherDisplay:10.37,2013-03-30 19:25:00,
2013-03-30 12:30:00,70.0,38.8,29.09,South,188,5.8,5.8,32,0.00,BKN,BKN,0.00,WeatherDisplay:10.37,2013-03-30 19:30:00,
2013-03-30 12:35:00,69.8,38.6,29.09,South,188,9.2,9.2,32,0.00,BKN,BKN,0.00,WeatherDisplay:10.37,2013-03-30 19:35:00,
2013-03-30 12:40:00,70.0,38.8,29.09,SSW,201,5.8,5.8,32,0.00,BKN,BKN,0.00,WeatherDisplay:10.37,2013-03-30 19:40:00,
2013-03-30 12:45:00,70.3,39.1,29.09,SSW,198,8.1,8.1,32,0.00,BKN,BKN,0.00,WeatherDisplay:10.37,2013-03-30 19:45:00,
2013-03-30 12:50:00,70.3,39.1,29.09,South,170,5.8,5.8,32,0.00,BKN,BKN,0.00,WeatherDisplay:10.37,2013-03-30 19:50:00,
2013-03-30 12:55:00,70.0,38.8,29.09,South,180,8.3,8.3,32,0.00,BKN,BKN,0.00,WeatherDisplay:10.37,2013-03-30 19:55:00,
2013-03-30 13:00:00,70.0,38.8,29.09,SSE,156,4.0,4.0,32,0.00,BKN,BKN,0.00,WeatherDisplay:10.37,2013-03-30 20:00:00,
2013-03-30 13:05:00,70.2,38.9,29.09,SSW,211,4.0,4.0,32,0.00,BKN,BKN,0.00,WeatherDisplay:10.37,2013-03-30 20:05:00,
2013-03-30 13:10:00,70.3,39.1,29.09,South,180,5.4,5.4,32,0.00,BKN,BKN,0.00,WeatherDisplay:10.37,2013-03-30 20:10:00,
2013-03-30 13:15:00,70.3,39.1,29.09,SSW,196,9.2,9.2,32,0.00,BKN,BKN,0.00,WeatherDisplay:10.37,2013-03-30 20:15:00,
2013-03-30 13:20:00,70.2,38.9,29.09,SW,216,8.3,8.3,32,0.00,BKN,BKN,0.00,WeatherDisplay:10.37,2013-03-30 20:20:00,
2013-03-30 13:25:00,69.6,38.4,29.09,SW,221,5.8,5.8,32,0.00,BKN,BKN,0.00,WeatherDisplay:10.37,2013-03-30 20:25:00,
2013-03-30 13:30:00,69.4,38.3,29.09,SSW,200,11.5,11.5,32,0.00,BKN,BKN,0.00,WeatherDisplay:10.37,2013-03-30 20:30:00,
2013-03-30 13:35:00,69.6,38.4,29.09,SSW,213,5.8,5.8,32,0.00,BKN,BKN,0.00,WeatherDisplay:10.37,2013-03-30 20:35:00,
2013-03-30 13:40:00,69.6,38.4,29.06,SW,225,4.9,4.9,32,0.00,BKN,BKN,0.00,WeatherDisplay:10.37,2013-03-30 20:40:00,
2013-03-30 13:45:00,70.0,38.8,29.06,SSW,211,4.0,4.0,32,0.00,BKN,BKN,0.00,WeatherDisplay:10.37,2013-03-30 20:45:00,
2013-03-30 13:50:00,69.4,38.3,29.06,SSW,212,6.3,6.3,32,0.00,BKN,BKN,0.00,WeatherDisplay:10.37,2013-03-30 20:50:00,
2013-03-30 13:55:00,69.6,38.4,29.06,SSW,206,5.8,5.8,32,0.00,BKN,BKN,0.00,WeatherDisplay:10.37,2013-03-30 20:55:00,
2013-03-30 14:00:00,69.6,38.4,29.06,South,177,4.6,4.6,32,0.00,BKN,BKN,0.00,WeatherDisplay:10.37,2013-03-30 21:00:00,
2013-03-30 14:05:00,70.2,38.9,29.06,South,190,3.5,3.5,32,0.00,BKN,BKN,0.00,WeatherDisplay:10.37,2013-03-30 21:05:00,
2013-03-30 14:10:00,70.2,38.9,29.06,SSW,194,2.0,5.0,32,0.00,BKN,BKN,0.00,WeatherDisplay:10.37,2013-03-30 21:10:00,
2013-03-30 14:15:00,70.3,39.0,29.06,South,189,3.0,4.0,32,0.00,BKN,BKN,0.00,WeatherDisplay:10.37,2013-03-30 21:15:00,
2013-03-30 14:20:00,70.4,39.1,29.06,South,184,2.0,6.0,32,0.00,BKN,BKN,0.00,WeatherDisplay:10.37,2013-03-30 21:20:00,
2013-03-30 14:25:00,70.5,39.2,29.06,South,184,3.0,6.0,32,0.00,BKN,BKN,0.00,WeatherDisplay:10.37,2013-03-30 21:25:00,
2013-03-30 14:30:00,70.8,39.5,29.06,South,172,5.0,6.0,32,0.00,BKN,BKN,0.00,WeatherDisplay:10.37,2013-03-30 21:30:00,
2013-03-30 14:35:00,71.5,38.4,29.06,South,171,5.0,6.0,30,0.00,BKN,BKN,0.00,WeatherDisplay:10.37,2013-03-30 21:35:00,
2013-03-30 14:40:00,72.0,39.7,29.03,South,174,5.0,6.0,31,0.00,BKN,BKN,0.00,WeatherDisplay:10.37,2013-03-30 21:40:00,
2013-03-30 14:46:00,72.1,39.8,29.03,SSW,203,3.5,3.5,31,0.00,BKN,BKN,0.00,WeatherDisplay:10.37,2013-03-30 21:46:00,
2013-03-30 14:51:00,72.3,40.0,29.03,South,170,7.2,7.2,31,0.00,BKN,BKN,0.00,WeatherDisplay:10.37,2013-03-30 21:51:00,
2013-03-30 14:57:00,72.5,40.1,29.06,SSE,159,3.1,0.0,31,0.00,BKN,BKN,0.00,WeatherDisplay:10.37,2013-03-30 21:57:00,
2013-03-30 15:02:00,72.9,40.4,29.06,SSW,200,3.6,3.6,31,0.00,BKN,BKN,0.00,WeatherDisplay:10.37,2013-03-30 22:02:00,
2013-03-30 15:07:00,72.1,38.1,29.06,SSW,204,4.0,4.0,29,0.00,BKN,BKN,0.00,WeatherDisplay:10.37,2013-03-30 22:07:00,
2013-03-30 15:12:00,72.3,38.3,29.06,SW,216,3.6,3.6,29,0.00,BKN,BKN,0.00,WeatherDisplay:10.37,2013-03-30 22:12:00,
2013-03-30 15:17:00,73.2,39.0,29.06,SSW,202,4.0,4.0,29,0.00,BKN,BKN,0.00,WeatherDisplay:10.37,2013-03-30 22:17:00,
2013-03-30 15:23:00,74.1,38.9,29.03,SSE,168,6.3,6.3,28,0.00,BKN,BKN,0.00,WeatherDisplay:10.37,2013-03-30 22:23:00,
2013-03-30 15:28:00,74.7,39.4,29.03,SSW,199,5.4,5.4,28,0.00,BKN,BKN,0.00,WeatherDisplay:10.37,2013-03-30 22:28:00,
2013-03-30 15:33:00,74.3,39.1,29.03,SSW,213,5.8,5.8,28,0.00,BKN,BKN,0.00,WeatherDisplay:10.37,2013-03-30 22:33:00,
2013-03-30 15:38:00,74.1,38.9,29.03,SW,223,3.6,3.6,28,0.00,BKN,BKN,0.00,WeatherDisplay:10.37,2013-03-30 22:38:00,
2013-03-30 15:43:00,73.6,38.5,29.03,SW,223,3.5,3.5,28,0.00,BKN,BKN,0.00,WeatherDisplay:10.37,2013-03-30 22:43:00,
2013-03-30 15:49:00,73.2,39.0,29.03,WSW,239,5.8,0.0,29,0.00,BKN,BKN,0.00,WeatherDisplay:10.37,2013-03-30 22:49:00,
2013-03-30 15:54:00,73.2,39.0,29.03,SW,228,0.0,0.0,29,0.00,BKN,BKN,0.00,WeatherDisplay:10.37,2013-03-30 22:54:00,
2013-03-30 15:59:00,73.8,38.6,29.03,NNE,14,0.0,0.0,28,0.00,BKN,BKN,0.00,WeatherDisplay:10.37,2013-03-30 22:59:00,
2013-03-30 16:04:00,74.3,39.1,29.03,NW,315,0.0,0.0,28,0.00,BKN,BKN,0.00,WeatherDisplay:10.37,2013-03-30 23:04:00,
2013-03-30 16:09:00,75.2,39.8,29.03,North,5,0.0,0.0,28,0.00,BKN,BKN,0.00,WeatherDisplay:10.37,2013-03-30 23:09:00,
2013-03-30 16:14:00,76.3,40.8,29.03,East,82,3.5,0.0,28,0.00,BKN,BKN,0.00,WeatherDisplay:10.37,2013-03-30 23:14:00,
2013-03-30 16:19:00,77.0,41.4,29.03,North,3,3.5,0.0,28,0.00,BKN,BKN,0.00,WeatherDisplay:10.37,2013-03-30 23:19:00,
2013-03-30 16:24:00,76.8,41.2,29.03,SSW,210,5.8,5.8,28,0.00,BKN,BKN,0.00,WeatherDisplay:10.37,2013-03-30 23:24:00,
2013-03-30 16:29:00,74.8,39.5,29.03,SW,219,4.0,4.0,28,0.00,BKN,BKN,0.00,WeatherDisplay:10.37,2013-03-30 23:29:00,
2013-03-30 16:34:00,74.1,38.9,29.03,SW,230,5.8,5.8,28,0.00,BKN,BKN,0.00,WeatherDisplay:10.37,2013-03-30 23:34:00,
2013-03-30 16:39:00,73.4,38.3,29.03,SW,232,3.6,3.6,28,0.00,BKN,BKN,0.00,WeatherDisplay:10.37,2013-03-30 23:39:00,
2013-03-30 16:44:00,72.9,38.7,29.03,SW,229,5.8,5.8,29,0.00,BKN,BKN,0.00,WeatherDisplay:10.37,2013-03-30 23:44:00,
2013-03-30 16:49:00,72.3,38.3,29.03,WSW,242,7.6,7.6,29,0.00,BKN,BKN,0.00,WeatherDisplay:10.37,2013-03-30 23:49:00,
2013-03-30 16:54:00,72.1,38.1,29.03,SW,235,3.5,3.5,29,0.00,BKN,BKN,0.00,WeatherDisplay:10.37,2013-03-30 23:54:00,
2013-03-30 16:59:00,72.1,38.1,29.03,SW,220,2.7,2.7,29,0.00,BKN,BKN,0.00,WeatherDisplay:10.37,2013-03-30 23:59:00,
2013-03-30 17:04:00,72.3,38.3,29.03,SSW,212,3.6,3.6,29,0.00,SCT,SCT,0.00,WeatherDisplay:10.37,2013-03-31 00:04:00,
2013-03-30 17:09:00,72.1,38.1,29.03,SSW,208,5.8,5.8,29,0.00,SCT,SCT,0.00,WeatherDisplay:10.37,2013-03-31 00:09:00,
2013-03-30 17:14:00,71.8,39.5,29.03,SSW,202,6.3,6.3,31,0.00,SCT,SCT,0.00,WeatherDisplay:10.37,2013-03-31 00:14:00,
2013-03-30 17:19:00,70.5,36.7,29.03,SW,225,12.7,12.7,29,0.00,SCT,SCT,0.00,WeatherDisplay:10.37,2013-03-31 00:19:00,
2013-03-30 17:24:00,70.0,38.8,29.03,SSW,201,6.3,6.3,32,0.00,SCT,SCT,0.00,WeatherDisplay:10.37,2013-03-31 00:24:00,
2013-03-30 17:29:00,69.4,38.3,29.03,SW,218,8.1,8.1,32,0.00,SCT,SCT,0.00,WeatherDisplay:10.37,2013-03-31 00:29:00,
2013-03-30 17:34:00,68.9,37.8,29.03,SW,222,8.3,8.3,32,0.00,SCT,SCT,0.00,WeatherDisplay:10.37,2013-03-31 00:34:00,
2013-03-30 17:39:00,68.5,35.9,29.03,SW,230,9.6,9.6,30,0.00,SCT,SCT,0.00,WeatherDisplay:10.37,2013-03-31 00:39:00,
2013-03-30 17:44:00,68.4,35.7,29.03,WSW,238,10.4,10.4,30,0.00,SCT,SCT,0.00,WeatherDisplay:10.37,2013-03-31 00:44:00,
2013-03-30 17:49:00,68.2,35.5,29.03,South,183,9.2,9.2,30,0.00,SCT,SCT,0.00,WeatherDisplay:10.37,2013-03-31 00:49:00,
2013-03-30 17:54:00,68.0,35.4,29.03,SW,223,8.3,8.3,30,0.00,SCT,SCT,0.00,WeatherDisplay:10.37,2013-03-31 00:54:00,
2013-03-30 17:59:00,67.8,35.2,29.03,SW,228,8.3,8.3,30,0.00,SCT,SCT,0.00,WeatherDisplay:10.37,2013-03-31 00:59:00,
2013-03-30 18:04:00,67.8,35.2,29.03,WSW,257,10.1,10.1,30,0.00,BKN,BKN,0.00,WeatherDisplay:10.37,2013-03-31 01:04:00,
2013-03-30 18:09:00,67.8,35.2,29.03,WSW,247,10.4,10.4,30,0.00,BKN,BKN,0.00,WeatherDisplay:10.37,2013-03-31 01:09:00,
2013-03-30 18:14:00,67.8,35.2,29.03,WSW,239,5.4,5.4,30,0.00,BKN,BKN,0.00,WeatherDisplay:10.37,2013-03-31 01:14:00,
2013-03-30 18:19:00,67.8,35.2,29.03,SW,233,3.5,3.5,30,0.00,BKN,BKN,0.00,WeatherDisplay:10.37,2013-03-31 01:19:00,
2013-03-30 18:24:00,67.6,35.1,29.03,SW,220,3.5,3.5,30,0.00,BKN,BKN,0.00,WeatherDisplay:10.37,2013-03-31 01:24:00,
2013-03-30 18:29:00,67.6,35.1,29.03,WSW,252,0.0,0.0,30,0.00,BKN,BKN,0.00,WeatherDisplay:10.37,2013-03-31 01:29:00,
2013-03-30 18:34:00,67.6,36.7,29.03,SW,232,2.7,2.7,32,0.00,BKN,BKN,0.00,WeatherDisplay:10.37,2013-03-31 01:34:00,
2013-03-30 18:39:00,67.3,36.4,29.03,SW,227,0.0,0.0,32,0.00,BKN,BKN,0.00,WeatherDisplay:10.37,2013-03-31 01:39:00,
2013-03-30 18:44:00,66.9,36.1,29.03,SW,224,0.0,0.0,32,0.00,BKN,BKN,0.00,WeatherDisplay:10.37,2013-03-31 01:44:00,
2013-03-30 18:49:00,66.6,35.8,29.03,SW,233,3.5,3.5,32,0.00,BKN,BKN,0.00,WeatherDisplay:10.37,2013-03-31 01:49:00,
2013-03-30 18:54:00,66.2,35.4,29.03,SW,233,0.0,0.0,32,0.00,BKN,BKN,0.00,WeatherDisplay:10.37,2013-03-31 01:54:00,
2013-03-30 18:59:00,66.0,36.1,29.03,SW,214,2.3,2.3,33,0.00,BKN,BKN,0.00,WeatherDisplay:10.37,2013-03-31 01:59:00,
2013-03-30 19:04:00,65.8,35.9,29.03,SW,235,4.0,4.0,33,0.00,BKN,BKN,0.00,WeatherDisplay:10.37,2013-03-31 02:04:00,
2013-03-30 19:09:00,65.5,35.6,29.03,WSW,237,8.1,8.1,33,0.00,BKN,BKN,0.00,WeatherDisplay:10.37,2013-03-31 02:09:00,
2013-03-30 19:14:00,65.5,33.2,29.03,SW,235,4.6,4.6,30,0.00,BKN,BKN,0.00,WeatherDisplay:10.37,2013-03-31 02:14:00,
2013-03-30 19:19:00,65.1,32.9,29.03,SW,231,5.8,5.8,30,0.00,BKN,BKN,0.00,WeatherDisplay:10.37,2013-03-31 02:19:00,
2013-03-30 19:24:00,64.9,32.7,29.03,SW,231,3.5,0.0,30,0.00,BKN,BKN,0.00,WeatherDisplay:10.37,2013-03-31 02:24:00,
2013-03-30 19:29:00,64.8,32.6,29.03,SW,231,0.0,0.0,30,0.00,BKN,BKN,0.00,WeatherDisplay:10.37,2013-03-31 02:29:00,
2013-03-30 19:34:00,64.6,32.4,29.03,ESE,108,3.6,3.6,30,0.00,BKN,BKN,0.00,WeatherDisplay:10.37,2013-03-31 02:34:00,
2013-03-30 19:39:00,64.6,32.4,29.03,ESE,104,0.0,0.0,30,0.00,BKN,BKN,0.00,WeatherDisplay:10.37,2013-03-31 02:39:00,
2013-03-30 19:44:00,64.6,32.4,29.03,East,91,0.0,0.0,30,0.00,BKN,BKN,0.00,WeatherDisplay:10.37,2013-03-31 02:44:00,
2013-03-30 19:49:00,64.4,32.3,29.03,SW,223,3.6,3.6,30,0.00,BKN,BKN,0.00,WeatherDisplay:10.37,2013-03-31 02:49:00,
2013-03-30 19:54:00,64.2,32.9,29.03,SW,227,0.0,0.0,31,0.00,BKN,BKN,0.00,WeatherDisplay:10.37,2013-03-31 02:54:00,
2013-03-30 19:59:00,64.0,32.8,29.03,SW,226,0.0,0.0,31,0.00,BKN,BKN,0.00,WeatherDisplay:10.37,2013-03-31 02:59:00,
2013-03-30 20:04:00,63.9,32.6,29.03,SW,220,0.0,0.0,31,0.00,BKN,BKN,0.00,WeatherDisplay:10.37,2013-03-31 03:04:00,
2013-03-30 20:09:00,63.5,32.3,29.03,WSW,239,6.3,6.3,31,0.00,BKN,BKN,0.00,WeatherDisplay:10.37,2013-03-31 03:09:00,
2013-03-30 20:14:00,63.3,32.1,29.03,WSW,238,4.0,4.0,31,0.00,BKN,BKN,0.00,WeatherDisplay:10.37,2013-03-31 03:14:00,
2013-03-30 20:19:00,63.1,33.5,29.03,SW,223,4.0,4.0,33,0.00,BKN,BKN,0.00,WeatherDisplay:10.37,2013-03-31 03:19:00,
2013-03-30 20:25:00,63.1,33.5,29.03,SW,229,3.6,0.0,33,0.00,BKN,BKN,0.00,WeatherDisplay:10.37,2013-03-31 03:25:00,
2013-03-30 20:30:00,63.1,32.0,29.03,WSW,239,4.0,4.0,31,0.00,BKN,BKN,0.00,WeatherDisplay:10.37,2013-03-31 03:30:00,
2013-03-30 20:35:00,63.1,33.5,29.03,WSW,238,3.0,6.0,33,0.00,BKN,BKN,0.00,WeatherDisplay:10.37,2013-03-31 03:35:00,
2013-03-30 20:40:00,63.1,33.5,29.03,WSW,239,3.0,4.0,33,0.00,BKN,BKN,0.00,WeatherDisplay:10.37,2013-03-31 03:40:00,
2013-03-30 20:45:00,63.0,33.4,29.03,WSW,241,3.0,6.0,33,0.00,BKN,BKN,0.00,WeatherDisplay:10.37,2013-03-31 03:45:00,
2013-03-30 20:50:00,62.8,31.7,29.03,WSW,243,1.0,3.0,31,0.00,BKN,BKN,0.00,WeatherDisplay:10.37,2013-03-31 03:50:00,
2013-03-30 20:55:00,63.0,32.6,29.03,WSW,243,0.0,0.0,32,0.00,BKN,BKN,0.00,WeatherDisplay:10.37,2013-03-31 03:55:00,
2013-03-30 21:00:00,63.0,33.4,29.03,WSW,243,0.0,0.0,33,0.00,BKN,BKN,0.00,WeatherDisplay:10.37,2013-03-31 04:00:00,
2013-03-30 21:01:00,63.0,33.4,29.03,WSW,242,0.0,0.0,33,0.00,BKN,BKN,0.00,WeatherDisplay:10.37,2013-03-31 04:01:00,
2013-03-30 21:05:00,62.8,33.2,29.03,WSW,243,0.0,0.0,33,0.00,BKN,BKN,0.00,WeatherDisplay:10.37,2013-03-31 04:05:00,
2013-03-30 21:10:00,62.6,33.1,29.03,WSW,243,0.0,0.0,33,0.00,BKN,BKN,0.00,WeatherDisplay:10.37,2013-03-31 04:10:00,
2013-03-30 21:15:00,62.6,33.1,29.03,WSW,243,0.0,0.0,33,0.00,BKN,BKN,0.00,WeatherDisplay:10.37,2013-03-31 04:15:00,
2013-03-30 21:20:00,62.4,33.7,29.03,WSW,243,0.0,0.0,34,0.00,BKN,BKN,0.00,WeatherDisplay:10.37,2013-03-31 04:20:00,
2013-03-30 21:25:00,62.2,33.5,29.06,WSW,243,0.0,0.0,34,0.00,BKN,BKN,0.00,WeatherDisplay:10.37,2013-03-31 04:25:00,
2013-03-30 21:30:00,62.2,33.5,29.06,SW,227,0.0,2.0,34,0.00,BKN,BKN,0.00,WeatherDisplay:10.37,2013-03-31 04:30:00,
2013-03-30 21:35:00,62.1,33.3,29.06,SSW,197,0.0,0.0,34,0.00,BKN,BKN,0.00,WeatherDisplay:10.37,2013-03-31 04:35:00,
2013-03-30 21:40:00,61.7,33.0,29.06,South,191,0.0,0.0,34,0.00,BKN,BKN,0.00,WeatherDisplay:10.37,2013-03-31 04:40:00,
2013-03-30 21:45:00,61.2,32.5,29.06,South,189,2.0,4.0,34,0.00,BKN,BKN,0.00,WeatherDisplay:10.37,2013-03-31 04:45:00,
2013-03-30 21:50:00,60.6,32.1,29.06,South,183,0.0,4.0,34,0.00,BKN,BKN,0.00,WeatherDisplay:10.37,2013-03-31 04:50:00,
2013-03-30 21:55:00,60.3,31.8,29.06,South,184,0.0,0.0,34,0.00,BKN,BKN,0.00,WeatherDisplay:10.37,2013-03-31 04:55:00,
2013-03-30 22:00:00,60.1,31.6,29.06,South,187,0.0,0.0,34,0.00,BKN,BKN,0.00,WeatherDisplay:10.37,2013-03-31 05:00:00,
2013-03-30 22:05:00,60.1,31.6,29.06,South,187,0.0,0.0,34,0.00,BKN,BKN,0.00,WeatherDisplay:10.37,2013-03-31 05:05:00,
2013-03-30 22:10:00,60.1,31.6,29.06,South,187,0.0,0.0,34,0.00,BKN,BKN,0.00,WeatherDisplay:10.37,2013-03-31 05:10:00,
2013-03-30 22:15:00,60.1,31.6,29.06,South,187,0.0,0.0,34,0.00,BKN,BKN,0.00,WeatherDisplay:10.37,2013-03-31 05:15:00,
2013-03-30 22:20:00,59.9,31.4,29.06,South,187,0.0,0.0,34,0.00,BKN,BKN,0.00,WeatherDisplay:10.37,2013-03-31 05:20:00,
2013-03-30 22:25:00,59.7,31.3,29.06,SSE,149,0.0,2.0,34,0.00,BKN,BKN,0.00,WeatherDisplay:10.37,2013-03-31 05:25:00,
2013-03-30 22:30:00,59.7,31.3,29.06,East,99,0.0,0.0,34,0.00,BKN,BKN,0.00,WeatherDisplay:10.37,2013-03-31 05:30:00,
2013-03-30 22:35:00,59.7,31.3,29.06,East,86,0.0,0.0,34,0.00,BKN,BKN,0.00,WeatherDisplay:10.37,2013-03-31 05:35:00,
2013-03-30 22:40:00,59.9,33.5,29.06,East,89,0.0,0.0,37,0.00,BKN,BKN,0.00,WeatherDisplay:10.37,2013-03-31 05:40:00,
2013-03-30 22:45:00,59.9,33.5,29.06,East,92,0.0,0.0,37,0.00,BKN,BKN,0.00,WeatherDisplay:10.37,2013-03-31 05:45:00,
2013-03-30 22:50:00,59.9,33.5,29.06,East,93,0.0,0.0,37,0.00,BKN,BKN,0.00,WeatherDisplay:10.37,2013-03-31 05:50:00,
2013-03-30 22:55:00,59.9,33.5,29.06,East,94,0.0,0.0,37,0.00,BKN,BKN,0.00,WeatherDisplay:10.37,2013-03-31 05:55:00,
2013-03-30 23:00:00,59.7,33.4,29.06,East,95,0.0,0.0,37,0.00,BKN,BKN,0.00,WeatherDisplay:10.37,2013-03-31 06:00:00,
2013-03-30 23:05:00,59.9,33.5,29.06,East,96,0.0,0.0,37,0.00,BKN,BKN,0.00,WeatherDisplay:10.37,2013-03-31 06:05:00,
2013-03-30 23:10:00,59.9,33.5,29.06,East,96,0.0,0.0,37,0.00,BKN,BKN,0.00,WeatherDisplay:10.37,2013-03-31 06:10:00,
2013-03-30 23:17:00,59.9,33.5,29.06,SSE,163,0.0,0.0,37,0.00,BKN,BKN,0.00,WeatherDisplay:10.37,2013-03-31 06:17:00,
2013-03-30 23:22:00,59.7,33.4,29.06,SSE,163,0.0,0.0,37,0.00,BKN,BKN,0.00,WeatherDisplay:10.37,2013-03-31 06:22:00,
2013-03-30 23:27:00,59.7,33.4,29.06,SSE,163,0.0,0.0,37,0.00,BKN,BKN,0.00,WeatherDisplay:10.37,2013-03-31 06:27:00,
2013-03-30 23:32:00,59.7,33.4,29.06,East,88,0.0,0.0,37,0.00,BKN,BKN,0.00,WeatherDisplay:10.37,2013-03-31 06:32:00,
2013-03-30 23:37:00,59.7,33.4,29.06,East,94,0.0,0.0,37,0.00,BKN,BKN,0.00,WeatherDisplay:10.37,2013-03-31 06:37:00,
2013-03-30 23:42:00,59.9,33.5,29.06,East,95,0.0,0.0,37,0.00,BKN,BKN,0.00,WeatherDisplay:10.37,2013-03-31 06:42:00,
2013-03-30 23:47:00,59.9,33.5,29.06,SE,145,0.0,0.0,37,0.00,BKN,BKN,0.00,WeatherDisplay:10.37,2013-03-31 06:47:00,
2013-03-30 23:52:00,59.9,33.5,29.06,SE,143,2.3,0.0,37,0.00,BKN,BKN,0.00,WeatherDisplay:10.37,2013-03-31 06:52:00,
2013-03-30 23:57:00,59.9,34.9,29.06,South,176,3.5,3.5,39,0.00,BKN,BKN,0.00,WeatherDisplay:10.37,2013-03-31 06:57:00,